CW1020 Weather Reports


time (UTC)temp
F
wind
direction
speed
knots
gust
knots
rain 1hr
in
rain 24hr
in
rain mn
in
humidity
%
barometer
mb
20260901113003 51 71 0.0 1.7 0.00 0.00 0.00 51 1017.2
20260901112002 51 0 0.0 0.0 0.00 0.00 0.00 52 1017.0
20260901111003 52 37 0.0 0.9 0.00 0.00 0.00 51 1017.1
20260901110503 52 34 0.0 0.9 0.00 0.00 0.00 51 1017.1
20260901110003 52 33 0.0 0.9 0.00 0.00 0.00 51 1017.1
20260901105503 52 0 0.0 0.0 0.00 0.00 0.00 52 1017.1
20260901105002 52 33 0.0 0.9 0.00 0.00 0.00 52 1017.0
20260901104002 52 0 0.0 0.0 0.00 0.00 0.00 52 1017.1
20260901103503 52 0 0.0 0.0 0.00 0.00 0.00 52 1017.1
20260901103003 52 0 0.0 0.0 0.00 0.00 0.00 52 1017.0
20260901102502 52 0 0.0 0.0 0.00 0.00 0.00 52 1017.0
20260901102002 52 0 0.0 0.0 0.00 0.00 0.00 52 1017.0
20260901101003 53 0 0.0 0.0 0.00 0.00 0.00 52 1017.1
20260901100503 53 0 0.0 0.0 0.00 0.00 0.00 52 1017.2
20260901100003 53 83 0.0 0.9 0.00 0.00 0.00 52 1017.1
20260901095502 53 0 0.0 0.0 0.00 0.00 0.00 52 1017.2
20260901095002 53 0 0.0 0.0 0.00 0.00 0.00 51 1017.2
20260901094503 53 0 0.0 0.0 0.00 0.00 0.00 51 1017.1
20260901094002 54 99 0.0 0.9 0.00 0.00 0.00 51 1017.2
20260901093503 54 98 0.0 0.9 0.00 0.00 0.00 50 1017.1
20260901093003 54 90 0.0 0.9 0.00 0.00 0.00 50 1017.2
20260901092503 55 90 0.0 0.9 0.00 0.00 0.00 49 1017.2
20260901092002 55 0 0.0 0.0 0.00 0.00 0.00 49 1017.3
20260901091503 55 0 0.0 0.0 0.00 0.00 0.00 49 1017.3
20260901091002 55 0 0.0 0.0 0.00 0.00 0.00 49 1017.2
20260901090502 55 0 0.0 0.0 0.00 0.00 0.00 49 1017.3
20260901090003 56 0 0.0 0.0 0.00 0.00 0.00 48 1017.3
20260901085503 56 0 0.0 0.0 0.00 0.00 0.00 48 1017.3
20260901085002 56 0 0.0 0.0 0.00 0.00 0.00 48 1017.4
20260901084502 56 0 0.0 0.0 0.00 0.00 0.00 48 1017.4
20260901084003 57 90 0.0 0.9 0.00 0.00 0.00 47 1017.4
20260901083502 57 0 0.0 0.0 0.00 0.00 0.00 46 1017.4
20260901083003 57 0 0.0 0.0 0.00 0.00 0.00 46 1017.4
20260901082503 57 0 0.0 0.0 0.00 0.00 0.00 46 1017.5
20260901082003 58 0 0.0 0.0 0.00 0.00 0.00 45 1017.4
20260901075503 59 82 0.0 0.9 0.00 0.00 0.00 44 1017.7
20260901075003 59 77 0.0 0.9 0.00 0.00 0.00 44 1017.7
20260901074503 59 51 0.0 0.9 0.00 0.00 0.00 43 1017.6
20260901073502 60 0 0.0 0.0 0.00 0.00 0.00 44 1017.6
20260901073003 60 50 0.0 0.9 0.00 0.00 0.00 44 1017.5
20260901072503 60 50 0.0 0.9 0.00 0.00 0.00 43 1017.5
20260901072003 60 0 0.0 0.0 0.00 0.00 0.00 43 1017.5
20260901071503 61 0 0.0 0.0 0.00 0.00 0.00 43 1017.5
20260901071003 61 0 0.0 0.0 0.00 0.00 0.00 42 1017.5
20260901070502 61 0 0.0 0.0 0.00 0.00 0.00 42 1017.5
20260901065503 62 0 0.0 0.0 0.00 0.00 0.00 41 1017.4
20260901065003 62 0 0.0 0.0 0.00 0.00 0.00 41 1017.4
20260901064503 63 0 0.0 0.0 0.00 0.00 0.00 40 1017.4
20260901064003 63 49 0.0 1.7 0.00 0.00 0.00 39 1017.4
20260901063503 64 49 0.0 0.9 0.00 0.00 0.00 39 1017.4
20260901063003 64 0 0.0 0.0 0.00 0.00 0.00 38 1017.4
20260901062503 64 0 0.0 0.0 0.00 0.00 0.00 38 1017.4
20260901062002 65 59 0.0 0.9 0.00 0.00 0.00 37 1017.3
20260901061503 65 0 0.0 0.0 0.00 0.00 0.00 36 1017.4
20260901061003 65 134 0.9 0.9 0.00 0.00 0.00 36 1017.2
20260901060503 65 126 0.9 2.6 0.00 0.00 0.00 36 1017.2
20260901060003 65 124 0.9 2.6 0.00 0.00 0.00 37 1017.3
20260901055503 65 129 0.0 2.6 0.00 0.00 0.00 37 1017.3
20260901055003 65 119 0.9 1.7 0.00 0.00 0.00 38 1017.3
20260901053503 65 75 0.9 1.7 0.00 0.00 0.00 38 1017.3
20260901052503 65 150 1.7 3.5 0.00 0.00 0.00 38 1017.4
20260901052004 65 144 1.7 3.5 0.00 0.00 0.00 39 1017.4
20260901051503 64 143 0.9 4.3 0.00 0.00 0.00 39 1017.4
20260901051002 64 132 0.0 2.6 0.00 0.00 0.00 38 1017.6
20260901045503 65 66 0.0 0.9 0.00 0.00 0.00 38 1017.4
20260901045002 65 61 0.0 2.6 0.00 0.00 0.00 37 1017.4
20260901044506 66 0 0.0 0.0 0.00 0.00 0.00 37 1017.3
20260901043503 67 0 0.0 0.0 0.00 0.00 0.00 36 1017.3
20260901042503 67 55 0.9 0.9 0.00 0.00 0.00 35 1017.0
20260901041503 68 0 0.0 0.0 0.00 0.00 0.00 35 1016.9
20260901040503 69 58 0.9 1.7 0.00 0.00 0.00 34 1016.9
20260901040003 69 69 1.7 1.7 0.00 0.00 0.00 33 1016.8
20260901035503 70 73 0.9 2.6 0.00 0.00 0.00 33 1016.6
20260901035003 70 73 0.0 2.6 0.00 0.00 0.00 32 1016.5
20260901034503 70 0 0.0 0.0 0.00 0.00 0.00 32 1016.5
20260901034003 70 0 0.0 0.0 0.00 0.00 0.00 32 1016.5
20260901033503 71 0 0.0 0.0 0.00 0.00 0.00 31 1016.4
20260901033003 71 171 0.0 1.7 0.00 0.00 0.00 31 1016.3
20260901032504 71 0 0.0 0.0 0.00 0.00 0.00 31 1016.2
20260901031503 72 103 0.0 1.7 0.00 0.00 0.00 30 1016.1
20260901031003 72 0 0.0 0.0 0.00 0.00 0.00 30 1016.0
20260901030503 72 26 0.0 0.9 0.00 0.00 0.00 29 1016.0
20260901030003 72 0 0.9 0.0 0.00 0.00 0.00 28 1015.9
20260901025503 73 35 0.9 2.6 0.00 0.00 0.00 28 1016.0
20260901025004 73 74 0.0 2.6 0.00 0.00 0.00 27 1016.0
20260901024503 74 178 0.0 0.9 0.00 0.00 0.00 27 1015.9
20260901024003 74 178 0.9 2.6 0.00 0.00 0.00 27 1015.8
20260901023503 74 174 1.7 1.7 0.00 0.00 0.00 26 1015.7
20260901023003 74 169 1.7 4.3 0.00 0.00 0.00 26 1015.7
20260901022503 75 184 1.7 8.7 0.00 0.00 0.00 26 1015.7
20260901022003 75 187 3.5 6.1 0.00 0.00 0.00 25 1015.7
20260901021503 75 186 4.3 6.1 0.00 0.00 0.00 25 1015.6
20260901021003 76 187 3.5 8.7 0.00 0.00 0.00 25 1015.6
20260901020504 76 178 2.6 8.7 0.00 0.00 0.00 24 1015.6
20260901020003 77 170 1.7 5.2 0.00 0.00 0.00 24 1015.5
20260901015503 78 175 2.6 4.3 0.00 0.00 0.00 24 1015.5
20260901015004 78 162 2.6 6.1 0.00 0.00 0.00 23 1015.5
20260901014503 79 151 0.9 8.7 0.00 0.00 0.00 23 1015.5
20260901014004 79 248 1.7 0.9 0.00 0.00 0.00 22 1015.5
20260901013503 79 230 2.6 3.5 0.00 0.00 0.00 22 1015.5
20260901013003 79 253 1.7 3.5 0.00 0.00 0.00 22 1015.5
20260901012503 79 226 2.6 4.3 0.00 0.00 0.00 22 1015.4
20260901012003 79 192 4.3 5.2 0.00 0.00 0.00 22 1015.4
20260901010503 79 233 7.0 12.2 0.00 0.00 0.00 21 1015.3
20260901010004 80 230 7.0 13.0 0.00 0.00 0.00 21 1015.3
20260901005503 80 220 7.0 12.2 0.00 0.00 0.00 21 1015.3
20260901005003 80 231 7.0 13.9 0.00 0.00 0.00 20 1015.3
20260901004503 80 233 7.8 10.4 0.00 0.00 0.00 20 1015.3
20260901004004 80 241 7.8 12.2 0.00 0.00 0.00 21 1015.4
20260901003503 80 238 7.8 13.0 0.00 0.00 0.00 20 1015.4
20260901003003 80 239 7.8 13.9 0.00 0.00 0.00 20 1015.4
20260901001503 80 226 7.8 16.5 0.00 0.00 0.00 20 1015.6
20260901001003 81 232 7.0 11.3 0.00 0.00 0.00 20 1015.5
20260901000503 81 235 7.8 15.6 0.00 0.00 0.00 20 1015.5
20260831235503 81 240 7.8 18.2 0.00 0.00 0.00 20 1015.4
20260831235004 81 235 8.7 13.0 0.00 0.00 0.00 20 1015.4
20260831233503 81 242 8.7 15.6 0.00 0.00 0.00 20 1015.4
20260831233004 81 240 7.8 14.8 0.00 0.00 0.00 20 1015.5
20260831232503 82 235 7.0 15.6 0.00 0.00 0.00 20 1015.6
20260831232003 82 240 7.8 11.3 0.00 0.00 0.00 20 1015.6
20260831231004 81 234 8.7 12.2 0.00 0.00 0.00 20 1015.6
20260831230503 82 237 8.7 14.8 0.00 0.00 0.00 20 1015.6
20260831230004 82 233 7.8 15.6 0.00 0.00 0.00 20 1015.7
20260831225503 82 213 7.8 10.4 0.00 0.00 0.00 20 1015.7
20260831225003 81 221 8.7 12.2 0.00 0.00 0.00 20 1015.7
20260831224003 82 229 9.6 14.8 0.00 0.00 0.00 20 1015.8
20260831223503 82 233 7.8 13.9 0.00 0.00 0.00 20 1015.8
20260831222503 82 235 8.7 15.6 0.00 0.00 0.00 20 1015.9
20260831222003 82 241 8.7 13.9 0.00 0.00 0.00 20 1016.0
20260831221004 81 236 9.6 17.4 0.00 0.00 0.00 20 1016.0
20260831220503 81 236 9.6 14.8 0.00 0.00 0.00 20 1016.2
20260831215504 81 240 9.6 15.6 0.00 0.00 0.00 19 1016.2
20260831215003 82 242 8.7 15.6 0.00 0.00 0.00 19 1016.2
20260831214504 81 241 7.8 12.2 0.00 0.00 0.00 20 1016.3
20260831214003 81 232 10.4 13.9 0.00 0.00 0.00 20 1016.3
20260831213504 80 237 11.3 14.8 0.00 0.00 0.00 19 1016.3
20260831213003 80 235 11.3 16.5 0.00 0.00 0.00 19 1016.3
20260831212502 81 237 11.3 17.4 0.00 0.00 0.00 19 1016.4
20260831212002 80 237 12.2 17.4 0.00 0.00 0.00 18 1016.5
20260831211002 81 225 11.3 16.5 0.00 0.00 0.00 18 1016.5
20260831210502 80 224 11.3 14.8 0.00 0.00 0.00 18 1016.6
20260831210002 81 236 10.4 20.0 0.00 0.00 0.00 17 1016.6
20260831205502 81 238 9.6 18.2 0.00 0.00 0.00 17 1016.6
20260831204502 81 237 9.6 15.6 0.00 0.00 0.00 17 1016.6
20260831204002 81 233 9.6 13.9 0.00 0.00 0.00 16 1016.5
20260831203502 81 239 10.4 14.8 0.00 0.00 0.00 17 1016.6
20260831203002 81 233 9.6 16.5 0.00 0.00 0.00 17 1016.5
20260831202502 81 240 9.6 16.5 0.00 0.00 0.00 17 1016.6
20260831202002 81 233 10.4 18.2 0.00 0.00 0.00 18 1016.6
20260831201503 80 237 9.6 16.5 0.00 0.00 0.00 18 1016.7
20260831201002 81 237 9.6 14.8 0.00 0.00 0.00 18 1016.7
20260831200503 80 229 9.6 13.0 0.00 0.00 0.00 19 1016.6
20260831200003 80 240 9.6 13.9 0.00 0.00 0.00 20 1016.7
20260831195002 80 235 8.7 16.5 0.00 0.00 0.00 21 1016.8
20260831194502 80 231 9.6 13.0 0.00 0.00 0.00 22 1016.8
20260831194002 80 233 9.6 14.8 0.00 0.00 0.00 22 1016.8
20260831193502 80 234 9.6 16.5 0.00 0.00 0.00 22 1016.8
20260831193003 80 235 8.7 11.3 0.00 0.00 0.00 22 1016.9
20260831192502 80 237 8.7 14.8 0.00 0.00 0.00 22 1016.9
20260831192002 80 238 7.8 14.8 0.00 0.00 0.00 23 1017.0
20260831191503 80 231 7.8 12.2 0.00 0.00 0.00 23 1017.1
20260831191002 79 236 7.8 13.0 0.00 0.00 0.00 23 1017.1
20260831190503 79 241 7.8 12.2 0.00 0.00 0.00 24 1017.0
20260831190003 79 241 8.7 12.2 0.00 0.00 0.00 24 1017.0
20260831185502 80 237 7.8 14.8 0.00 0.00 0.00 24 1017.0
20260831185002 80 235 7.0 15.6 0.00 0.00 0.00 24 1017.0
20260831184502 80 242 7.0 10.4 0.00 0.00 0.00 25 1017.1
20260831184003 79 237 7.8 12.2 0.00 0.00 0.00 25 1017.1
20260831183502 79 236 7.8 10.4 0.00 0.00 0.00 25 1017.1
20260831182502 79 237 7.0 12.2 0.00 0.00 0.00 26 1017.1
20260831182002 79 239 7.0 10.4 0.00 0.00 0.00 27 1017.2
20260831181503 79 237 7.0 13.0 0.00 0.00 0.00 27 1017.2
20260831181002 78 241 7.8 10.4 0.00 0.00 0.00 27 1017.2
20260831180503 78 233 7.0 13.9 0.00 0.00 0.00 28 1017.3
20260831180002 78 233 7.8 11.3 0.00 0.00 0.00 29 1017.3
20260831175502 78 240 7.8 11.3 0.00 0.00 0.00 29 1017.3
20260831175002 78 242 7.0 13.9 0.00 0.00 0.00 30 1017.4
20260831174502 77 238 4.3 11.3 0.00 0.00 0.00 29 1017.4
20260831174002 77 241 4.3 9.6 0.00 0.00 0.00 30 1017.4
20260831173502 77 245 4.3 9.6 0.00 0.00 0.00 31 1017.4
20260831173002 76 244 3.5 7.8 0.00 0.00 0.00 31 1017.3
20260831172502 76 255 2.6 7.8 0.00 0.00 0.00 32 1017.4
20260831172002 76 264 2.6 5.2 0.00 0.00 0.00 33 1017.4
20260831171502 75 248 2.6 7.8 0.00 0.00 0.00 33 1017.4
20260831171002 75 246 4.3 7.0 0.00 0.00 0.00 34 1017.5
20260831170002 74 243 5.2 8.7 0.00 0.00 0.00 35 1017.4
20260831165503 74 245 5.2 7.0 0.00 0.00 0.00 36 1017.3
20260831165002 74 243 4.3 8.7 0.00 0.00 0.00 36 1017.3
20260831164502 74 246 3.5 7.8 0.00 0.00 0.00 36 1017.3
20260831163502 73 253 0.9 2.6 0.00 0.00 0.00 37 1017.3
20260831163003 72 240 0.9 2.6 0.00 0.00 0.00 38 1017.4
20260831162502 71 251 0.0 2.6 0.00 0.00 0.00 39 1017.4
20260831162002 69 327 0.0 0.9 0.00 0.00 0.00 41 1017.2
20260831161503 68 0 0.0 0.0 0.00 0.00 0.00 42 1017.2
20260831161002 67 0 0.0 0.0 0.00 0.00 0.00 43 1017.2
20260831160502 66 329 0.0 0.9 0.00 0.00 0.00 45 1017.2
20260831160003 65 343 0.0 1.7 0.00 0.00 0.00 47 1017.3
20260831155002 62 0 0.0 0.0 0.00 0.00 0.00 54 1017.3
20260831154503 62 73 0.0 0.9 0.00 0.00 0.00 56 1017.4
20260831154002 60 74 0.0 2.6 0.00 0.00 0.00 58 1017.4
20260831153503 59 0 0.0 0.0 0.00 0.00 0.00 59 1017.4
20260831153003 58 0 0.0 0.0 0.00 0.00 0.00 61 1017.5
20260831152502 58 0 0.0 0.0 0.00 0.00 0.00 63 1017.4
20260831151503 56 0 0.0 0.0 0.00 0.00 0.00 65 1017.5
20260831150503 55 0 0.0 0.0 0.00 0.00 0.00 66 1017.4
20260831150003 55 0 0.0 0.0 0.00 0.00 0.00 66 1017.4
20260831145502 55 0 0.0 0.0 0.00 0.00 0.00 66 1017.4
20260831144002 54 0 0.0 0.0 0.00 0.00 0.00 65 1017.3
20260831143502 54 0 0.0 0.0 0.00 0.00 0.00 65 1017.3
20260831143003 54 0 0.0 0.0 0.00 0.00 0.00 65 1017.3
20260831142502 54 0 0.0 0.0 0.00 0.00 0.00 65 1017.2
20260831142002 54 0 0.0 0.0 0.00 0.00 0.00 64 1017.1
20260831141503 54 0 0.0 0.0 0.00 0.00 0.00 64 1017.1
20260831141003 54 0 0.0 0.0 0.00 0.00 0.00 64 1017.0
20260831140502 54 0 0.0 0.0 0.00 0.00 0.00 64 1017.0
20260831140002 54 0 0.0 0.0 0.00 0.00 0.00 64 1017.0
20260831135503 54 0 0.0 0.0 0.00 0.00 0.00 64 1016.9
20260831135002 54 0 0.0 0.0 0.00 0.00 0.00 63 1016.8
20260831134503 55 0 0.0 0.0 0.00 0.00 0.00 62 1016.7
20260831134002 55 75 0.0 0.9 0.00 0.00 0.00 60 1016.7
20260831133502 55 0 0.0 0.0 0.00 0.00 0.00 60 1016.7
20260831133002 55 0 0.0 0.0 0.00 0.00 0.00 60 1016.5
20260831132502 56 0 0.0 0.0 0.00 0.00 0.00 60 1016.5
20260831132002 56 0 0.0 0.0 0.00 0.00 0.00 60 1016.5
20260831131502 56 0 0.0 0.0 0.00 0.00 0.00 60 1016.4
20260831131002 56 0 0.0 0.0 0.00 0.00 0.00 59 1016.4
20260831125503 57 0 0.0 0.0 0.00 0.00 0.00 59 1016.6
20260831125002 57 0 0.0 0.0 0.00 0.00 0.00 59 1016.6
20260831123502 57 0 0.0 0.0 0.00 0.00 0.00 59 1016.4
20260831123002 57 0 0.0 0.0 0.00 0.00 0.00 59 1016.3
20260831122503 57 89 0.9 1.7 0.00 0.00 0.00 59 1016.4
20260831122003 57 76 0.0 1.7 0.00 0.00 0.00 59 1016.5
20260831121502 57 73 0.0 0.9 0.00 0.00 0.00 60 1016.4
20260831121002 58 74 0.0 0.9 0.00 0.00 0.00 59 1016.4
20260831120002 58 0 0.0 0.0 0.00 0.00 0.00 59 1016.3
20260831115503 58 0 0.0 0.0 0.00 0.00 0.00 58 1016.3
20260831114003 58 0 0.0 0.0 0.00 0.00 0.00 58 1016.5
20260831113502 58 0 0.0 0.0 0.00 0.00 0.00 58 1016.5